Wind_Speed
14 16 18 19 21 22 23 24 26 26 26 24 23 20 20 20 19 20 23 24 19 17 18 19 17 14 13 18 21 23 24 24 26 27 25 22 25 24 26 28 28 37 47 30 42 33 28
14 15 16 18 20 22 24 25 25 26 26 26 24 22 19 19 17 17 19 22 22 17 18 19 18 15 18 23 23 23 25 26 26 22 19 19 21 16 27 28 28 31 40 28 29 36 22
13 14 16 17 19 21 23 25 26 27 27 26 25 23 20 18 16 16 17 19 21 19 18 20 22 22 23 23 24 23 25 22 20 19 18 18 19 19 22 25 21 20 35 23 29 42 31
15 16 17 18 19 20 23 25 27 28 28 28 26 23 21 19 17 16 16 19 18 20 20 20 19 23 22 17 18 21 21 15 17 17 15 16 18 16 21 16 14 20 35 28 31 34 37
15 17 18 19 21 21 22 24 27 28 28 27 27 25 21 18 17 15 15 17 19 18 20 21 17 20 18 21 18 17 15 12 14 19 21 10 11 13 16 16 10 18 19 22 26 27 15
17 18 20 20 20 23 25 25 26 28 29 28 27 25 23 21 19 16 14 16 20 17 18 21 17 19 23 21 19 21 9 9 12 5 11 11 11 13 16 15 11 19 22 19 26 30 32
20 21 22 23 24 25 25 26 27 29 29 29 28 26 26 23 21 19 16 15 19 17 16 19 20 22 25 22 23 13 6 6 4 3 9 12 10 15 12 13 10 16 19 10 24 26 26
22 23 24 24 26 27 28 29 29 28 30 30 29 28 26 26 22 23 20 15 18 23 15 13 18 18 23 19 19 8 6 2 2 1 10 5 8 11 12 13 20 28 23 12 15 27 26
25 26 27 27 28 29 30 29 30 30 30 30 30 29 26 24 25 21 25 16 14 20 19 8 14 16 19 15 23 10 7 10 5 6 4 2 2 4 7 8 21 29 25 22 23 26 28
27 28 29 29 29 31 31 31 31 30 29 29 27 30 27 26 24 19 22 21 16 15 12 4 9 11 15 10 18 8 8 6 7 9 9 9 9 10 13 10 11 11 8 32 27 25 6
28 29 29 30 31 31 32 32 31 31 31 29 27 28 28 27 24 21 18 19 15 14 5 5 6 7 14 13 8 16 9 8 7 3 1 5 3 5 8 14 8 7 24 32 18 15 15
29 29 30 31 32 32 35 37 35 32 30 28 29 30 28 26 23 22 18 16 14 4 5 3 2 3 5 9 8 11 8 6 3 3 0 5 4 7 8 6 10 17 19 21 17 15 2
30 30 30 33 36 40 37 37 38 42 25 28 28 32 28 26 23 22 17 16 8 5 2 3 3 2 1 3 4 7 6 5 3 1 1 1 1 3 3 13 14 13 8 3 5 4 1
31 32 35 35 30 33 34 34 29 30 27 28 25 26 24 24 26 21 17 16 5 3 5 9 6 5 5 3 2 2 5 2 7 2 2 2 1 6 7 6 3 18 3 1 5 5 4
31 26 31 31 31 31 34 28 27 26 27 23 24 26 25 23 21 14 17 13 5 7 3 7 13 11 8 9 7 6 7 10 7 4 2 2 2 6 7 10 2 12 5 3 4 8 6
31 31 33 33 36 27 30 28 27 27 27 27 28 30 26 17 16 18 17 13 11 10 5 2 5 8 8 10 8 6 8 6 8 10 9 6 6 5 5 13 10 7 4 5 2 4 4
30 34 30 28 33 26 31 30 28 28 30 31 26 20 17 14 18 20 16 17 16 15 7 3 4 6 11 17 17 18 9 8 12 9 11 9 8 5 10 15 19 12 9 5 4 2 2
33 31 28 29 26 26 29 26 27 28 26 28 25 18 18 21 21 19 18 16 15 12 9 8 8 13 23 13 17 16 18 11 7 13 10 12 7 8 14 14 15 20 16 14 3 1 2
31 27 31 27 25 26 30 30 28 27 24 28 26 21 16 11 11 12 13 14 14 15 11 8 10 14 17 16 11 11 17 20 16 14 9 10 8 5 3 12 18 18 25 23 16 18 8
35 34 26 27 24 33 31 22 23 30 29 25 23 13 15 15 13 13 14 17 11 12 14 14 13 14 17 23 20 14 14 11 13 16 18 17 16 13 7 2 5 13 27 26 26 18 17
31 29 31 28 30 29 24 22 23 24 28 23 20 14 16 15 16 19 23 27 28 25 19 13 16 19 20 20 21 22 24 23 25 23 16 16 23 23 26 22 15 14 16 23 33 36 23
32 30 31 30 30 27 23 19 21 28 22 25 24 23 24 26 27 29 29 35 30 22 22 20 24 22 21 23 23 26 24 22 23 17 21 21 17 19 27 28 29 30 28 22 28 37 42
31 30 30 29 28 26 25 24 19 24 25 30 25 28 29 33 29 28 32 28 20 19 22 20 22 22 22 22 22 19 20 26 29 20 18 15 13 10 14 22 20 21 35 35 34 32 37
29 28 28 27 28 27 27 25 20 25 31 28 31 29 32 38 37 32 27 29 26 25 28 29 26 23 23 21 18 19 18 21 25 30 26 24 17 15 7 7 4 13 22 26 30 36 37
28 28 28 29 29 29 29 30 23 28 28 33 29 32 32 43 44 38 27 29 27 27 32 34 31 26 23 23 19 15 13 16 19 25 29 34 23 13 6 8 21 15 9 19 23 28 29
27 27 28 30 31 30 30 30 30 28 21 38 32 34 37 47 48 40 34 32 30 30 30 31 25 25 24 22 16 8 7 5 6 6 8 20 26 23 11 6 7 7 12 22 22 22 18
31 32 32 32 32 30 30 30 30 29 27 37 43 33 45 44 52 45 44 36 30 31 33 29 27 18 14 18 19 16 15 12 7 7 8 11 18 34 27 16 16 19 10 8 9 6 12
31 29 27 24 23 23 23 24 24 26 29 32 39 34 33 48 47 45 46 44 36 36 33 29 22 23 24 23 16 14 14 13 15 18 11 10 10 12 18 11 14 15 23 26 22 15 15
21 20 20 21 22 23 24 24 26 26 28 30 32 35 42 45 52 47 39 46 29 33 31 33 32 20 13 14 19 12 13 10 14 8 16 13 20 13 12 6 7 5 6 4 18 20 18
Wind_Direction
17 15 13 12 10 9 10 9 7 7 7 4 4 1 358 359 360 360 4 360 358 351 344 337 332 320 296 293 300 300 297 286 287 286 279 258 254 254 249 250 253 242 224 235 217 213 218
4 5 7 5 5 5 3 2 3 3 4 3 1 358 354 358 356 353 1 359 360 350 344 335 327 311 299 302 304 304 301 290 291 283 277 258 250 249 250 251 251 242 239 246 227 205 217
349 350 353 357 357 359 357 355 356 357 358 360 358 355 347 353 352 348 354 357 2 354 344 331 317 310 305 306 304 305 303 299 289 281 278 265 238 236 244 249 262 251 235 261 211 230 219
335 338 341 344 348 349 350 349 349 351 353 354 356 353 347 343 349 345 348 346 354 2 355 339 333 327 324 330 315 307 310 306 294 283 270 257 233 233 234 243 255 233 231 260 218 202 220
327 328 330 334 335 338 341 341 342 344 346 349 352 349 345 337 338 340 336 339 339 351 360 353 347 344 346 338 321 307 312 314 311 289 264 206 200 222 228 234 236 205 228 243 205 220 178
319 320 323 325 326 329 331 333 335 337 339 341 344 347 340 341 331 331 328 330 332 333 351 356 352 353 339 331 326 322 322 322 322 13 140 177 198 210 212 218 205 188 228 270 207 201 222
313 315 318 320 322 323 324 325 328 331 333 336 338 340 341 335 337 325 326 330 327 327 323 350 349 347 343 335 341 352 10 330 120 142 174 183 218 223 222 244 211 222 261 284 227 214 238
311 312 312 315 316 317 319 322 325 325 327 329 333 335 337 337 337 333 325 327 330 327 331 329 351 349 353 4 13 3 19 53 178 187 171 220 262 239 232 204 206 217 279 234 207 223 226
309 310 310 312 313 314 316 317 319 322 323 325 327 331 333 335 329 343 325 325 330 326 320 329 353 5 4 18 26 46 63 59 140 141 176 218 108 166 174 198 238 242 241 244 187 189 212
309 310 311 312 314 314 314 314 315 318 319 319 325 325 329 331 329 339 330 322 325 334 308 318 4 18 24 42 35 34 29 77 103 111 105 109 141 217 247 271 164 215 244 167 164 165 131
311 312 312 313 314 314 313 312 313 316 317 317 323 318 323 327 328 326 333 323 328 345 327 340 9 25 42 60 71 41 43 94 75 50 219 171 169 358 50 42 84 73 122 157 147 155 107
312 312 312 315 315 312 306 308 308 302 305 313 321 318 319 323 330 325 333 330 324 336 266 319 25 33 33 31 64 59 35 84 50 24 47 164 99 27 22 74 93 104 95 106 127 136 83
311 311 309 306 305 309 321 321 316 308 297 303 300 313 318 324 326 327 332 330 309 211 259 309 325 220 272 333 32 53 34 330 103 177 176 158 347 27 70 117 136 145 139 68 55 59 106
304 300 312 317 320 324 320 319 315 315 300 304 309 307 322 332 332 316 331 332 259 278 336 348 291 273 237 242 255 340 101 177 339 326 82 317 188 269 245 183 110 158 8 289 154 159 152
330 322 324 322 326 324 322 317 317 324 323 303 298 295 300 296 310 317 327 325 282 327 5 343 306 288 276 264 269 261 265 251 258 236 199 271 252 292 253 205 89 210 268 357 102 134 146
320 319 319 316 324 327 327 327 318 321 323 318 308 299 306 302 304 320 320 313 284 306 324 320 284 301 307 308 288 261 264 263 247 236 225 283 299 256 234 203 219 224 300 309 252 127 236
316 316 315 315 318 321 325 326 325 324 320 318 322 314 310 297 301 307 306 313 303 301 262 179 282 252 299 305 289 283 272 275 240 249 245 253 250 261 209 213 225 228 252 250 298 286 201
312 313 317 318 319 317 322 323 321 321 326 326 324 312 307 297 296 290 290 291 297 299 281 223 237 276 303 281 287 275 265 266 262 242 246 241 265 241 256 256 244 239 247 231 222 194 356
311 308 303 311 310 308 308 310 316 320 323 322 320 311 303 292 286 287 279 289 299 296 264 236 257 287 306 289 284 269 256 265 265 254 238 238 231 271 284 235 240 240 236 233 236 253 253
301 304 310 306 302 302 307 309 312 317 320 324 319 309 297 295 277 275 285 297 303 300 286 270 269 280 292 301 280 260 250 267 271 260 252 244 239 232 229 220 236 229 250 243 231 227 227
303 305 309 307 308 312 312 301 315 310 324 328 325 307 294 280 275 278 285 285 290 296 277 269 282 289 287 289 291 277 262 252 256 261 264 250 251 251 251 249 256 256 250 248 236 237 230
303 304 308 306 307 307 304 298 302 302 308 316 315 309 299 288 287 286 285 289 284 276 273 278 288 294 285 286 289 286 263 251 253 259 254 253 258 260 265 257 257 264 253 248 242 245 248
303 305 303 303 305 305 305 300 291 296 292 293 301 301 296 294 297 297 301 298 278 276 281 284 289 285 282 295 297 285 279 264 252 244 246 249 254 261 262 263 268 267 257 249 248 251 243
302 302 302 303 304 305 301 285 282 279 285 284 289 289 293 290 292 299 307 298 285 278 278 285 288 281 278 281 287 290 287 279 265 253 236 242 248 254 279 270 240 246 252 254 250 254 254
302 303 304 304 302 300 298 293 295 280 274 286 289 292 286 285 289 293 296 295 292 281 274 280 283 278 267 271 283 292 284 275 265 256 244 237 231 243 247 247 267 253 246 250 255 257 257
306 306 306 305 302 298 296 292 287 280 274 281 273 284 281 281 285 291 288 284 288 289 283 286 277 280 261 263 263 242 241 283 268 266 255 229 229 219 229 238 223 251 249 248 244 253 256
305 305 303 301 300 298 297 296 293 290 273 261 275 272 275 273 278 279 283 284 283 281 287 289 279 262 248 248 239 240 241 241 250 238 212 195 211 219 228 242 255 236 252 255 215 235 239
306 306 309 309 312 311 309 307 301 294 287 282 271 268 276 274 291 274 286 281 281 276 279 284 271 260 245 237 231 227 236 235 239 243 239 240 222 208 217 229 260 255 242 242 247 233 229
320 321 319 316 313 311 310 306 300 295 290 286 281 272 262 274 276 285 287 280 276 290 282 278 268 253 229 215 220 218 224 228 232 242 237 234 227 242 225 246 242 237 222 245 242 242 237
Height
3127 3124 3121 3118 3115 3111 3106 3102 3098 3094 3090 3085 3081 3076 3072 3069 3065 3061 3056 3051 3046 3042 3039 3036 3032 3029 3028 3026 3024 3019 3017 3014 3012 3009 3009 3009 3008 3008 3009 3010 3011 3010 3016 3017 3021 3025 3028
3126 3124 3120 3117 3114 3111 3107 3102 3098 3094 3090 3085 3081 3076 3072 3067 3063 3059 3054 3050 3045 3042 3039 3036 3031 3028 3024 3023 3019 3015 3012 3009 3006 3004 3003 3002 3003 3005 3004 3005 3007 3006 3010 3012 3017 3018 3023
3125 3123 3120 3116 3113 3109 3106 3102 3098 3094 3089 3085 3080 3076 3071 3066 3061 3057 3054 3048 3044 3041 3037 3033 3029 3025 3021 3019 3014 3010 3006 3003 3002 2999 2998 2998 2999 3000 3000 3001 3004 3003 3007 3011 3010 3016 3013
3126 3122 3120 3116 3112 3108 3105 3101 3097 3093 3089 3085 3080 3075 3070 3066 3060 3056 3052 3048 3043 3039 3035 3031 3027 3023 3018 3013 3010 3006 3002 2999 2997 2994 2994 2994 2995 2997 2998 3000 3002 3003 3007 3008 3011 3008 3012
3124 3122 3118 3115 3112 3108 3103 3100 3096 3091 3088 3083 3079 3074 3068 3063 3059 3053 3050 3047 3042 3038 3034 3030 3026 3021 3016 3010 3005 3001 2998 2996 2994 2990 2988 2991 2993 2995 2998 2999 3003 3002 3003 3004 3006 3007 3011
3122 3119 3117 3113 3109 3106 3103 3098 3094 3090 3086 3081 3077 3072 3067 3062 3058 3052 3048 3045 3042 3038 3034 3029 3024 3022 3015 3009 3003 2997 2996 2994 2992 2989 2987 2992 2993 2993 2994 2998 3001 3002 3006 3000 3002 3004 3006
3120 3118 3115 3112 3108 3104 3100 3097 3092 3088 3084 3079 3074 3070 3065 3060 3056 3052 3046 3044 3043 3038 3033 3029 3025 3020 3013 3008 3003 2998 2995 2993 2992 2992 2992 2993 2994 2992 2992 2995 2996 2998 3000 2995 2997 2999 3006
3118 3115 3112 3109 3105 3101 3097 3093 3089 3085 3081 3076 3072 3068 3063 3059 3054 3051 3046 3041 3038 3037 3031 3027 3024 3020 3014 3007 3002 2997 2996 2995 2994 2994 2995 2995 2992 2992 2992 2992 2997 2999 3000 2996 3002 3007 3014
3115 3112 3109 3106 3102 3098 3094 3089 3085 3081 3077 3073 3069 3064 3060 3055 3052 3046 3045 3040 3034 3032 3029 3027 3023 3019 3014 3009 3002 3001 3000 2997 2996 2996 2996 2995 2993 2992 2992 2993 2998 2997 2995 2999 3001 3010 3012
3111 3108 3105 3101 3098 3095 3091 3085 3081 3077 3073 3068 3063 3061 3056 3052 3050 3042 3041 3038 3034 3029 3027 3027 3023 3020 3015 3009 3007 3006 3003 3001 2999 3000 2998 2997 2996 2994 2994 2993 2994 2994 2987 2996 3001 3007 3010
3106 3104 3100 3097 3093 3089 3085 3080 3075 3071 3068 3064 3059 3056 3052 3048 3046 3042 3038 3035 3032 3030 3032 3027 3023 3021 3016 3012 3010 3008 3007 3005 3003 3002 3000 3000 2997 2996 2994 2994 2995 2991 2989 2997 3003 3006 3011
3103 3099 3095 3092 3089 3084 3079 3075 3071 3066 3063 3059 3055 3052 3048 3045 3041 3040 3036 3032 3031 3031 3026 3025 3023 3021 3018 3015 3011 3009 3008 3007 3004 3004 3002 3002 3000 2999 2997 2998 3000 2999 3000 3003 3007 3012 3018
3099 3095 3091 3086 3081 3076 3073 3068 3062 3058 3055 3053 3051 3049 3045 3042 3040 3038 3034 3032 3031 3025 3027 3026 3023 3021 3018 3017 3014 3010 3009 3008 3007 3008 3007 3005 3005 3005 3005 3004 3003 3003 3006 3010 3016 3019 3020
3093 3089 3084 3080 3076 3072 3067 3062 3057 3053 3049 3047 3047 3045 3042 3039 3037 3036 3034 3032 3028 3024 3022 3024 3022 3022 3020 3017 3016 3014 3010 3008 3006 3006 3008 3008 3007 3006 3004 3006 3006 3004 3006 3007 3013 3015 3017
3088 3084 3081 3076 3072 3067 3062 3058 3054 3050 3046 3044 3042 3040 3038 3036 3036 3033 3033 3030 3026 3024 3022 3022 3023 3020 3020 3018 3017 3014 3011 3009 3007 3005 3006 3006 3006 3004 3004 3004 3004 3006 3008 3010 3007 3016 3015
3085 3081 3077 3072 3068 3063 3058 3054 3051 3047 3043 3040 3037 3034 3033 3032 3032 3030 3030 3027 3025 3022 3021 3019 3021 3021 3019 3018 3017 3014 3011 3008 3007 3006 3004 3004 3003 3003 3004 3006 3008 3008 3006 3005 3008 3011 3009
3080 3076 3072 3068 3064 3059 3055 3051 3048 3045 3041 3037 3033 3029 3029 3028 3028 3027 3025 3024 3022 3020 3019 3018 3018 3019 3019 3016 3015 3013 3010 3008 3005 3005 3005 3004 3004 3004 3004 3004 3006 3008 3009 3010 3009 3007 3008
3075 3070 3067 3064 3060 3056 3052 3048 3044 3041 3037 3033 3029 3027 3026 3024 3024 3022 3021 3019 3019 3017 3016 3015 3014 3014 3016 3013 3012 3010 3007 3006 3004 3003 3004 3004 3001 2999 3000 3000 3002 3005 3007 3009 3010 3012 3005
3068 3065 3062 3058 3055 3052 3048 3044 3041 3035 3033 3029 3026 3023 3021 3019 3019 3019 3018 3017 3015 3014 3013 3011 3011 3010 3008 3010 3010 3005 3003 3001 3001 3002 3001 3000 3000 2998 2996 2998 2995 2996 3000 3004 3005 3005 3008
3062 3058 3054 3052 3050 3046 3042 3039 3036 3032 3028 3025 3022 3020 3018 3016 3016 3015 3015 3014 3012 3011 3010 3008 3007 3005 3004 3004 3004 3001 2999 2999 2997 2997 2998 2998 2996 2995 2994 2993 2993 2993 2992 2996 3000 3002 3003
3055 3052 3048 3045 3042 3040 3036 3035 3032 3028 3026 3024 3020 3017 3016 3014 3013 3012 3011 3009 3007 3007 3005 3004 3001 3001 3000 2998 2997 2995 2995 2993 2994 2993 2994 2994 2990 2989 2989 2990 2990 2990 2991 2992 2993 2995 2996
3049 3046 3043 3039 3036 3033 3031 3030 3028 3025 3023 3021 3018 3016 3012 3010 3010 3008 3007 3002 3001 3002 3001 2998 2997 2996 2995 2993 2992 2990 2990 2988 2987 2988 2988 2988 2986 2984 2981 2985 2985 2982 2986 2988 2988 2988 2987
3041 3038 3036 3033 3030 3028 3025 3023 3022 3020 3018 3014 3013 3010 3007 3001 3002 3003 3000 2998 2996 2997 2995 2993 2991 2990 2989 2988 2986 2985 2983 2982 2981 2982 2983 2984 2984 2983 2978 2978 2978 2974 2972 2977 2978 2978 2980
3035 3031 3029 3026 3024 3021 3019 3018 3016 3014 3012 3009 3007 3005 3001 2993 2994 2996 2994 2992 2991 2990 2988 2986 2985 2984 2983 2982 2981 2980 2978 2976 2974 2974 2976 2977 2979 2980 2976 2976 2972 2966 2967 2968 2969 2972 2974
3027 3025 3022 3019 3016 3014 3011 3009 3007 3007 3004 3001 2999 2997 2993 2984 2984 2986 2988 2985 2983 2981 2979 2976 2977 2976 2976 2976 2976 2975 2973 2970 2966 2966 2966 2969 2974 2976 2975 2971 2963 2960 2962 2962 2963 2965 2967
3021 3017 3014 3012 3009 3006 3003 3001 2999 2998 3000 2991 2992 2991 2986 2980 2972 2979 2979 2978 2976 2974 2971 2969 2968 2968 2968 2969 2970 2970 2969 2966 2965 2961 2959 2961 2965 2971 2970 2968 2963 2957 2956 2958 2959 2959 2960
3013 3010 3006 3003 3000 2997 2994 2992 2990 2988 2989 2985 2981 2983 2977 2970 2967 2970 2969 2968 2969 2966 2964 2963 2961 2961 2962 2962 2963 2963 2963 2963 2962 2958 2956 2957 2960 2959 2962 2961 2954 2954 2954 2955 2958 2960 2955
3005 3002 2999 2996 2992 2989 2987 2984 2982 2979 2977 2974 2971 2971 2969 2962 2958 2958 2960 2960 2958 2958 2956 2956 2956 2953 2955 2956 2956 2956 2955 2955 2954 2954 2953 2955 2955 2953 2956 2958 2952 2946 2948 2953 2954 2951 2952
2999 2996 2994 2991 2988 2984 2980 2977 2974 2971 2967 2963 2961 2959 2958 2954 2949 2949 2946 2949 2948 2950 2949 2948 2949 2948 2948 2946 2947 2948 2949 2949 2948 2948 2947 2949 2948 2948 2949 2945 2944 2943 2944 2945 2946 2946 2947